• In Österreich
  • Länderverzeichnis
  • Für 7 Tage
  • Wassertemperatur
  • Satellitenkarten
  • Wetterkarte
  • News
  • Widgets
  • user-avatar
    Anmelden

    Stündliche Wetter Godzieszki

    Heute, 16 August, Donnerstag

    Zeit Temperatur Niederschläge Wind Luftdruck Luftfeuchtigkeit
    00:00 +19°C° 0 mm 1 m/S 753 mmHg 76%
    01:00 +19°C° 0 mm 1 m/S 754 mmHg 76%
    02:00 +18°C° 0 mm 1 m/S 754 mmHg 78%
    03:00 +16°C° 0 mm 0 m/S 754 mmHg 79%
    04:00 +16°C° 0 mm 0 m/S 754 mmHg 81%
    05:00 +17°C° 0 mm 0 m/S 754 mmHg 77%
    06:00 +18°C° 0 mm 0 m/S 754 mmHg 73%
    07:00 +19°C° 0 mm 0 m/S 754 mmHg 68%
    08:00 +21°C° 0 mm 0 m/S 754 mmHg 63%
    09:00 +22°C° 0 mm 0 m/S 754 mmHg 58%
    10:00 +24°C° 0 mm 0 m/S 754 mmHg 52%
    11:00 +27°C° 0 mm 1 m/S 754 mmHg 50%
    12:00 +27°C° 0 mm 1 m/S 753 mmHg 47%
    13:00 +28°C° 0 mm 1 m/S 753 mmHg 44%
    14:00 +28°C° 0 mm 1 m/S 753 mmHg 44%
    15:00 +27°C° 0 mm 1 m/S 753 mmHg 45%
    16:00 +27°C° 0 mm 1 m/S 752 mmHg 46%
    17:00 +26°C° 0 mm 1 m/S 752 mmHg 48%
    18:00 +25°C° 0 mm 1 m/S 752 mmHg 51%
    19:00 +25°C° 0 mm 1 m/S 752 mmHg 53%
    20:00 +24°C° 0 mm 1 m/S 752 mmHg 54%
    21:00 +24°C° 0 mm 1 m/S 753 mmHg 54%
    22:00 +23°C° 0 mm 1 m/S 753 mmHg 55%
    23:00 +21°C° 0 mm 2 m/S 753 mmHg 57%

    Morgen, 17 August, Freitag

    Zeit Temperatur Niederschläge Wind Luftdruck Luftfeuchtigkeit
    00:00 +21°C° 0 mm 2 m/S 752 mmHg 60%
    01:00 +20°C° 0 mm 2 m/S 752 mmHg 62%
    02:00 +20°C° 0 mm 2 m/S 752 mmHg 65%
    03:00 +19°C° 0 mm 2 m/S 752 mmHg 69%
    04:00 +19°C° 0 mm 2 m/S 752 mmHg 73%
    05:00 +20°C° 0 mm 2 m/S 752 mmHg 72%
    06:00 +21°C° 0 mm 2 m/S 752 mmHg 71%
    07:00 +23°C° 0 mm 2 m/S 752 mmHg 70%
    08:00 +24°C° 0 mm 3 m/S 752 mmHg 64%
    09:00 +26°C° 0 mm 3 m/S 752 mmHg 58%
    10:00 +27°C° 0 mm 3 m/S 752 mmHg 52%
    11:00 +28°C° 0 mm 3 m/S 752 mmHg 50%
    12:00 +28°C° 0 mm 2 m/S 751 mmHg 48%
    13:00 +29°C° 0 mm 2 m/S 751 mmHg 46%
    14:00 +29°C° 0 mm 2 m/S 751 mmHg 47%
    15:00 +28°C° 0 mm 2 m/S 751 mmHg 48%
    16:00 +28°C° 0 mm 1 m/S 750 mmHg 50%
    17:00 +27°C° 0 mm 1 m/S 750 mmHg 52%
    18:00 +27°C° 0 mm 2 m/S 750 mmHg 54%
    19:00 +26°C° 0 mm 2 m/S 750 mmHg 57%
    20:00 +25°C° 0 mm 2 m/S 751 mmHg 58%
    21:00 +25°C° 0 mm 2 m/S 751 mmHg 59%
    22:00 +24°C° 0 mm 2 m/S 751 mmHg 60%
    23:00 +24°C° 0 mm 2 m/S 751 mmHg 63%

    übermorgen, 18 August, Samstag

    Zeit Temperatur Niederschläge Wind Luftdruck Luftfeuchtigkeit
    00:00 +23°C° 0 mm 2 m/S 751 mmHg 65%
    01:00 +23°C° 0 mm 2 m/S 751 mmHg 68%
    02:00 +22°C° 0 mm 1 m/S 751 mmHg 69%
    03:00 +22°C° 0 mm 1 m/S 751 mmHg 71%
    04:00 +22°C° 0 mm 1 m/S 751 mmHg 73%
    05:00 +23°C° 0 mm 1 m/S 752 mmHg 71%
    06:00 +23°C° 0 mm 1 m/S 752 mmHg 69%
    07:00 +24°C° 0 mm 1 m/S 752 mmHg 68%
    08:00 +25°C° 0,1 mm 1 m/S 752 mmHg 62%
    09:00 +27°C° 0,1 mm 1 m/S 752 mmHg 56%
    10:00 +28°C° 0,1 mm 1 m/S 753 mmHg 51%
    11:00 +29°C° 0 mm 1 m/S 753 mmHg 49%
    12:00 +29°C° 0 mm 2 m/S 752 mmHg 47%
    13:00 +29°C° 0 mm 2 m/S 752 mmHg 45%
    14:00 +29°C° 0 mm 3 m/S 752 mmHg 48%
    15:00 +29°C° 0 mm 3 m/S 752 mmHg 50%
    16:00 +28°C° 0 mm 3 m/S 752 mmHg 53%
    17:00 +27°C° 0,2 mm 3 m/S 753 mmHg 57%
    18:00 +26°C° 0,2 mm 2 m/S 753 mmHg 62%
    19:00 +25°C° 0,2 mm 2 m/S 753 mmHg 66%
    20:00 +24°C° 0,2 mm 2 m/S 753 mmHg 70%
    21:00 +23°C° 0,2 mm 2 m/S 754 mmHg 73%
    22:00 +21°C° 0,2 mm 2 m/S 754 mmHg 77%
    23:00 +20°C° 0 mm 2 m/S 754 mmHg 79%

    19 August, Sonntag

    Zeit Temperatur Niederschläge Wind Luftdruck Luftfeuchtigkeit
    00:00 +20°C° 0 mm 3 m/S 754 mmHg 81%
    01:00 +19°C° 0 mm 3 m/S 754 mmHg 83%
    02:00 +19°C° 0 mm 2 m/S 754 mmHg 84%
    03:00 +18°C° 0 mm 2 m/S 754 mmHg 86%
    04:00 +18°C° 0 mm 2 m/S 755 mmHg 88%
    05:00 +20°C° 0 mm 1 m/S 755 mmHg 84%
    06:00 +20°C° 0 mm 1 m/S 755 mmHg 79%
    07:00 +21°C° 0 mm 1 m/S 755 mmHg 75%
    08:00 +23°C° 0 mm 1 m/S 755 mmHg 66%
    09:00 +24°C° 0 mm 2 m/S 755 mmHg 56%
    10:00 +26°C° 0 mm 2 m/S 755 mmHg 46%
    11:00 +26°C° 0 mm 2 m/S 755 mmHg 43%
    12:00 +27°C° 0 mm 3 m/S 755 mmHg 41%
    13:00 +28°C° 0 mm 3 m/S 754 mmHg 39%
    14:00 +28°C° 0 mm 3 m/S 754 mmHg 39%
    15:00 +28°C° 0 mm 2 m/S 754 mmHg 39%
    16:00 +28°C° 0 mm 2 m/S 754 mmHg 40%
    17:00 +27°C° 0 mm 2 m/S 754 mmHg 44%
    18:00 +25°C° 0 mm 1 m/S 754 mmHg 48%
    19:00 +24°C° 0 mm 1 m/S 754 mmHg 52%
    20:00 +23°C° 0 mm 1 m/S 754 mmHg 53%
    21:00 +23°C° 0 mm 1 m/S 754 mmHg 55%
    22:00 +22°C° 0 mm 1 m/S 754 mmHg 57%
    23:00 +21°C° 0 mm 1 m/S 754 mmHg 59%

    20 August, Montag

    Zeit Temperatur Niederschläge Wind Luftdruck Luftfeuchtigkeit
    00:00 +21°C° 0 mm 1 m/S 754 mmHg 60%
    01:00 +21°C° 0 mm 1 m/S 754 mmHg 62%
    02:00 +20°C° 0 mm 1 m/S 754 mmHg 64%
    03:00 +20°C° 0 mm 1 m/S 754 mmHg 65%
    04:00 +20°C° 0 mm 1 m/S 754 mmHg 66%
    05:00 +21°C° 0 mm 1 m/S 754 mmHg 64%
    06:00 +22°C° 0 mm 1 m/S 754 mmHg 62%
    07:00 +23°C° 0 mm 2 m/S 754 mmHg 59%
    08:00 +24°C° 0 mm 2 m/S 754 mmHg 54%
    09:00 +26°C° 0 mm 2 m/S 754 mmHg 49%
    10:00 +27°C° 0 mm 3 m/S 754 mmHg 44%
    11:00 +28°C° 0 mm 3 m/S 753 mmHg 42%
    12:00 +29°C° 0 mm 3 m/S 753 mmHg 40%
    13:00 +30°C° 0 mm 3 m/S 752 mmHg 37%
    14:00 +30°C° 0 mm 3 m/S 752 mmHg 37%
    15:00 +30°C° 0 mm 3 m/S 752 mmHg 37%
    16:00 +30°C° 0 mm 3 m/S 751 mmHg 37%
    17:00 +29°C° 0 mm 2 m/S 751 mmHg 41%
    18:00 +28°C° 0 mm 2 m/S 751 mmHg 45%
    19:00 +26°C° 0 mm 2 m/S 751 mmHg 49%
    20:00 +26°C° 0 mm 2 m/S 751 mmHg 50%
    21:00 +25°C° 0 mm 3 m/S 752 mmHg 50%
    22:00 +25°C° 0 mm 3 m/S 752 mmHg 51%
    23:00 +24°C° 0 mm 3 m/S 752 mmHg 54%

    21 August, Dienstag

    Zeit Temperatur Niederschläge Wind Luftdruck Luftfeuchtigkeit
    00:00 +24°C° 0 mm 3 m/S 752 mmHg 56%
    01:00 +23°C° 0 mm 2 m/S 752 mmHg 59%
    02:00 +23°C° 0 mm 2 m/S 752 mmHg 61%
    03:00 +21°C° 0 mm 2 m/S 752 mmHg 63%
    04:00 +21°C° 0 mm 2 m/S 752 mmHg 66%
    05:00 +23°C° 0 mm 2 m/S 752 mmHg 67%
    06:00 +23°C° 0 mm 2 m/S 752 mmHg 67%
    07:00 +24°C° 0 mm 2 m/S 752 mmHg 68%
    08:00 +25°C° 0 mm 2 m/S 752 mmHg 63%
    09:00 +26°C° 0 mm 3 m/S 752 mmHg 58%
    10:00 +28°C° 0 mm 3 m/S 752 mmHg 53%
    11:00 +28°C° 0 mm 3 m/S 752 mmHg 52%
    12:00 +29°C° 0 mm 3 m/S 752 mmHg 51%
    13:00 +29°C° 0 mm 3 m/S 752 mmHg 49%
    14:00 +29°C° 0 mm 3 m/S 751 mmHg 49%
    15:00 +29°C° 0 mm 3 m/S 751 mmHg 50%
    16:00 +29°C° 0 mm 2 m/S 751 mmHg 50%
    17:00 +28°C° 0 mm 2 m/S 751 mmHg 53%
    18:00 +26°C° 0 mm 1 m/S 751 mmHg 57%
    19:00 +23°C° 0 mm 0 m/S 751 mmHg 60%
    20:00 +25°C° 0 mm 1 m/S 751 mmHg 62%
    21:00 +24°C° 0 mm 1 m/S 751 mmHg 64%
    22:00 +23°C° 0 mm 1 m/S 751 mmHg 66%
    23:00 +23°C° 0 mm 1 m/S 751 mmHg 67%
    Mehr zeigen